owner,sensor,date,latitude,longitude,vertical_datum,sea_water_temperature,qcFlag 
DISL,ioos:station:DISL:CATA:1,2018-03-01T00:30:00Z,30.3085,-88.1395,0.0,22.19,2 
DISL,ioos:station:DISL:CATA:1,2018-03-01T01:30:00Z,30.3085,-88.1395,0.0,22.11,2 
DISL,ioos:station:DISL:CATA:1,2018-03-01T02:30:00Z,30.3085,-88.1395,0.0,21.94,2 
DISL,ioos:station:DISL:CATA:1,2018-03-01T03:30:00Z,30.3085,-88.1395,0.0,21.69,2 
DISL,ioos:station:DISL:CATA:1,2018-03-01T04:30:00Z,30.3085,-88.1395,0.0,21.44,2 
DISL,ioos:station:DISL:CATA:1,2018-03-01T05:30:00Z,30.3085,-88.1395,0.0,21.08,2 
DISL,ioos:station:DISL:CATA:1,2018-03-01T06:00:00Z,30.3085,-88.1395,0.0,20.96,2 
DISL,ioos:station:DISL:CATA:1,2018-03-01T07:30:00Z,30.3085,-88.1395,0.0,20.79,2 
DISL,ioos:station:DISL:CATA:1,2018-03-01T08:30:00Z,30.3085,-88.1395,0.0,21.23,2 
DISL,ioos:station:DISL:CATA:1,2018-03-01T09:30:00Z,30.3085,-88.1395,0.0,21.56,2 
DISL,ioos:station:DISL:CATA:1,2018-03-01T10:30:00Z,30.3085,-88.1395,0.0,21.4,2 
DISL,ioos:station:DISL:CATA:1,2018-03-01T11:30:00Z,30.3085,-88.1395,0.0,21.3,2 
DISL,ioos:station:DISL:CATA:1,2018-03-01T12:30:00Z,30.3085,-88.1395,0.0,21.18,2 
DISL,ioos:station:DISL:CATA:1,2018-03-01T13:30:00Z,30.3085,-88.1395,0.0,21.07,2 
DISL,ioos:station:DISL:CATA:1,2018-03-01T14:30:00Z,30.3085,-88.1395,0.0,21.19,2 
DISL,ioos:station:DISL:CATA:1,2018-03-01T15:30:00Z,30.3085,-88.1395,0.0,21.21,2 
DISL,ioos:station:DISL:CATA:1,2018-03-01T16:30:00Z,30.3085,-88.1395,0.0,21.49,2 
DISL,ioos:station:DISL:CATA:1,2018-03-01T17:30:00Z,30.3085,-88.1395,0.0,22.09,2 
DISL,ioos:station:DISL:CATA:1,2018-03-01T18:30:00Z,30.3085,-88.1395,0.0,22.67,2 
DISL,ioos:station:DISL:CATA:1,2018-03-01T19:30:00Z,30.3085,-88.1395,0.0,23.08,2 
DISL,ioos:station:DISL:CATA:1,2018-03-01T20:30:00Z,30.3085,-88.1395,0.0,22.91,2 
DISL,ioos:station:DISL:CATA:1,2018-03-01T21:30:00Z,30.3085,-88.1395,0.0,22.8,2 
DISL,ioos:station:DISL:CATA:1,2018-03-01T22:30:00Z,30.3085,-88.1395,0.0,22.7,2 
DISL,ioos:station:DISL:CATA:1,2018-03-01T23:30:00Z,30.3085,-88.1395,0.0,22.71,2 
DISL,ioos:station:DISL:CATA:1,2018-03-02T00:30:00Z,30.3085,-88.1395,0.0,22.55,2 
DISL,ioos:station:DISL:CATA:1,2018-03-02T01:30:00Z,30.3085,-88.1395,0.0,22.94,2 
DISL,ioos:station:DISL:CATA:1,2018-03-02T02:30:00Z,30.3085,-88.1395,0.0,22.61,2 
DISL,ioos:station:DISL:CATA:1,2018-03-02T03:30:00Z,30.3085,-88.1395,0.0,22.31,2 
DISL,ioos:station:DISL:CATA:1,2018-03-02T04:30:00Z,30.3085,-88.1395,0.0,22.12,2 
DISL,ioos:station:DISL:CATA:1,2018-03-02T05:30:00Z,30.3085,-88.1395,0.0,21.7,2 
DISL,ioos:station:DISL:CATA:1,2018-03-02T06:30:00Z,30.3085,-88.1395,0.0,21.58,2 
DISL,ioos:station:DISL:CATA:1,2018-03-02T07:30:00Z,30.3085,-88.1395,0.0,21.46,2 
DISL,ioos:station:DISL:CATA:1,2018-03-02T08:30:00Z,30.3085,-88.1395,0.0,21.07,2 
DISL,ioos:station:DISL:CATA:1,2018-03-02T09:30:00Z,30.3085,-88.1395,0.0,20.88,2 
DISL,ioos:station:DISL:CATA:1,2018-03-02T10:30:00Z,30.3085,-88.1395,0.0,20.83,2 
DISL,ioos:station:DISL:CATA:1,2018-03-02T11:30:00Z,30.3085,-88.1395,0.0,20.79,2 
DISL,ioos:station:DISL:CATA:1,2018-03-02T12:30:00Z,30.3085,-88.1395,0.0,20.72,2 
DISL,ioos:station:DISL:CATA:1,2018-03-02T13:30:00Z,30.3085,-88.1395,0.0,20.6,2 
DISL,ioos:station:DISL:CATA:1,2018-03-02T14:30:00Z,30.3085,-88.1395,0.0,20.46,2 
DISL,ioos:station:DISL:CATA:1,2018-03-02T15:30:00Z,30.3085,-88.1395,0.0,20.54,2 
DISL,ioos:station:DISL:CATA:1,2018-03-02T16:30:00Z,30.3085,-88.1395,0.0,20.59,2 
DISL,ioos:station:DISL:CATA:1,2018-03-02T17:30:00Z,30.3085,-88.1395,0.0,20.65,2 
DISL,ioos:station:DISL:CATA:1,2018-03-02T18:30:00Z,30.3085,-88.1395,0.0,20.68,2 
DISL,ioos:station:DISL:CATA:1,2018-03-02T19:30:00Z,30.3085,-88.1395,0.0,20.4,2 
DISL,ioos:station:DISL:CATA:1,2018-03-02T20:30:00Z,30.3085,-88.1395,0.0,20.66,2 
DISL,ioos:station:DISL:CATA:1,2018-03-02T21:30:00Z,30.3085,-88.1395,0.0,20.69,2 
DISL,ioos:station:DISL:CATA:1,2018-03-02T22:30:00Z,30.3085,-88.1395,0.0,20.62,2 
DISL,ioos:station:DISL:CATA:1,2018-03-02T23:30:00Z,30.3085,-88.1395,0.0,20.64,2 
DISL,ioos:station:DISL:CATA:1,2018-03-03T00:30:00Z,30.3085,-88.1395,0.0,20.69,2 
DISL,ioos:station:DISL:CATA:1,2018-03-03T01:30:00Z,30.3085,-88.1395,0.0,20.77,2 
DISL,ioos:station:DISL:CATA:1,2018-03-03T02:30:00Z,30.3085,-88.1395,0.0,20.21,2 
DISL,ioos:station:DISL:CATA:1,2018-03-03T03:30:00Z,30.3085,-88.1395,0.0,19.96,2 
DISL,ioos:station:DISL:CATA:1,2018-03-03T04:30:00Z,30.3085,-88.1395,0.0,20.25,2 
DISL,ioos:station:DISL:CATA:1,2018-03-03T05:30:00Z,30.3085,-88.1395,0.0,20.42,2 
DISL,ioos:station:DISL:CATA:1,2018-03-03T06:30:00Z,30.3085,-88.1395,0.0,20.15,2 
DISL,ioos:station:DISL:CATA:1,2018-03-03T07:30:00Z,30.3085,-88.1395,0.0,19.18,2 
DISL,ioos:station:DISL:CATA:1,2018-03-03T08:30:00Z,30.3085,-88.1395,0.0,19.01,2 
DISL,ioos:station:DISL:CATA:1,2018-03-03T09:30:00Z,30.3085,-88.1395,0.0,18.22,2 
DISL,ioos:station:DISL:CATA:1,2018-03-03T10:30:00Z,30.3085,-88.1395,0.0,18.29,2 
DISL,ioos:station:DISL:CATA:1,2018-03-03T11:30:00Z,30.3085,-88.1395,0.0,18.35,2 
DISL,ioos:station:DISL:CATA:1,2018-03-03T12:30:00Z,30.3085,-88.1395,0.0,18.22,2 
DISL,ioos:station:DISL:CATA:1,2018-03-03T13:30:00Z,30.3085,-88.1395,0.0,18.37,2 
DISL,ioos:station:DISL:CATA:1,2018-03-03T14:30:00Z,30.3085,-88.1395,0.0,18.46,2 
DISL,ioos:station:DISL:CATA:1,2018-03-03T15:30:00Z,30.3085,-88.1395,0.0,18.6,2 
DISL,ioos:station:DISL:CATA:1,2018-03-03T16:30:00Z,30.3085,-88.1395,0.0,18.7,2 
DISL,ioos:station:DISL:CATA:1,2018-03-03T17:30:00Z,30.3085,-88.1395,0.0,18.77,2 
DISL,ioos:station:DISL:CATA:1,2018-03-03T18:30:00Z,30.3085,-88.1395,0.0,18.97,2 
DISL,ioos:station:DISL:CATA:1,2018-03-03T19:30:00Z,30.3085,-88.1395,0.0,19.8,2 
DISL,ioos:station:DISL:CATA:1,2018-03-03T20:30:00Z,30.3085,-88.1395,0.0,19.87,2 
DISL,ioos:station:DISL:CATA:1,2018-03-03T21:30:00Z,30.3085,-88.1395,0.0,19.65,2 
DISL,ioos:station:DISL:CATA:1,2018-03-03T22:30:00Z,30.3085,-88.1395,0.0,19.49,2 
DISL,ioos:station:DISL:CATA:1,2018-03-03T23:30:00Z,30.3085,-88.1395,0.0,19.61,2 
DISL,ioos:station:DISL:CATA:1,2018-03-04T00:30:00Z,30.3085,-88.1395,0.0,19.59,2 
DISL,ioos:station:DISL:CATA:1,2018-03-04T01:30:00Z,30.3085,-88.1395,0.0,19.12,2 
DISL,ioos:station:DISL:CATA:1,2018-03-04T02:30:00Z,30.3085,-88.1395,0.0,18.98,2 
DISL,ioos:station:DISL:CATA:1,2018-03-04T03:30:00Z,30.3085,-88.1395,0.0,18.99,2 
DISL,ioos:station:DISL:CATA:1,2018-03-04T04:30:00Z,30.3085,-88.1395,0.0,18.82,2 
DISL,ioos:station:DISL:CATA:1,2018-03-04T05:30:00Z,30.3085,-88.1395,0.0,18.68,2 
DISL,ioos:station:DISL:CATA:1,2018-03-04T06:30:00Z,30.3085,-88.1395,0.0,18.5,2 
DISL,ioos:station:DISL:CATA:1,2018-03-04T07:30:00Z,30.3085,-88.1395,0.0,18.68,2 
DISL,ioos:station:DISL:CATA:1,2018-03-04T08:30:00Z,30.3085,-88.1395,0.0,18.61,2 
DISL,ioos:station:DISL:CATA:1,2018-03-04T09:30:00Z,30.3085,-88.1395,0.0,18.09,2 
DISL,ioos:station:DISL:CATA:1,2018-03-04T10:30:00Z,30.3085,-88.1395,0.0,18.07,2 
DISL,ioos:station:DISL:CATA:1,2018-03-04T11:30:00Z,30.3085,-88.1395,0.0,18.0,2 
DISL,ioos:station:DISL:CATA:1,2018-03-04T12:30:00Z,30.3085,-88.1395,0.0,17.82,2 
DISL,ioos:station:DISL:CATA:1,2018-03-04T13:30:00Z,30.3085,-88.1395,0.0,17.74,2 
DISL,ioos:station:DISL:CATA:1,2018-03-04T14:30:00Z,30.3085,-88.1395,0.0,17.59,2 
DISL,ioos:station:DISL:CATA:1,2018-03-04T15:30:00Z,30.3085,-88.1395,0.0,17.76,2 
DISL,ioos:station:DISL:CATA:1,2018-03-04T16:30:00Z,30.3085,-88.1395,0.0,17.96,2 
DISL,ioos:station:DISL:CATA:1,2018-03-04T17:30:00Z,30.3085,-88.1395,0.0,18.32,2 
DISL,ioos:station:DISL:CATA:1,2018-03-04T18:30:00Z,30.3085,-88.1395,0.0,18.73,2 
DISL,ioos:station:DISL:CATA:1,2018-03-04T19:30:00Z,30.3085,-88.1395,0.0,19.1,2 
DISL,ioos:station:DISL:CATA:1,2018-03-04T20:30:00Z,30.3085,-88.1395,0.0,19.01,2 
DISL,ioos:station:DISL:CATA:1,2018-03-04T21:30:00Z,30.3085,-88.1395,0.0,18.9,2 
DISL,ioos:station:DISL:CATA:1,2018-03-04T22:30:00Z,30.3085,-88.1395,0.0,18.96,2 
DISL,ioos:station:DISL:CATA:1,2018-03-04T23:30:00Z,30.3085,-88.1395,0.0,18.8,2 
DISL,ioos:station:DISL:CATA:1,2018-03-05T00:30:00Z,30.3085,-88.1395,0.0,18.99,2 
DISL,ioos:station:DISL:CATA:1,2018-03-05T01:30:00Z,30.3085,-88.1395,0.0,18.68,2 
DISL,ioos:station:DISL:CATA:1,2018-03-05T02:30:00Z,30.3085,-88.1395,0.0,18.41,2 
DISL,ioos:station:DISL:CATA:1,2018-03-05T03:30:00Z,30.3085,-88.1395,0.0,18.3,2 
DISL,ioos:station:DISL:CATA:1,2018-03-05T04:30:00Z,30.3085,-88.1395,0.0,18.37,2 
DISL,ioos:station:DISL:CATA:1,2018-03-05T05:30:00Z,30.3085,-88.1395,0.0,18.33,2 
DISL,ioos:station:DISL:CATA:1,2018-03-05T06:30:00Z,30.3085,-88.1395,0.0,18.12,2 
DISL,ioos:station:DISL:CATA:1,2018-03-05T07:30:00Z,30.3085,-88.1395,0.0,18.21,2 
DISL,ioos:station:DISL:CATA:1,2018-03-05T08:30:00Z,30.3085,-88.1395,0.0,18.22,2 
DISL,ioos:station:DISL:CATA:1,2018-03-05T09:30:00Z,30.3085,-88.1395,0.0,18.12,2 
DISL,ioos:station:DISL:CATA:1,2018-03-05T10:30:00Z,30.3085,-88.1395,0.0,18.16,2 
DISL,ioos:station:DISL:CATA:1,2018-03-05T11:30:00Z,30.3085,-88.1395,0.0,18.08,2 
DISL,ioos:station:DISL:CATA:1,2018-03-05T12:30:00Z,30.3085,-88.1395,0.0,18.06,2 
DISL,ioos:station:DISL:CATA:1,2018-03-05T13:30:00Z,30.3085,-88.1395,0.0,17.99,2 
DISL,ioos:station:DISL:CATA:1,2018-03-05T14:30:00Z,30.3085,-88.1395,0.0,17.94,2 
DISL,ioos:station:DISL:CATA:1,2018-03-05T15:30:00Z,30.3085,-88.1395,0.0,18.16,2 
DISL,ioos:station:DISL:CATA:1,2018-03-05T16:30:00Z,30.3085,-88.1395,0.0,18.26,2 
DISL,ioos:station:DISL:CATA:1,2018-03-05T17:30:00Z,30.3085,-88.1395,0.0,18.41,2 
DISL,ioos:station:DISL:CATA:1,2018-03-05T18:30:00Z,30.3085,-88.1395,0.0,18.8,2 
DISL,ioos:station:DISL:CATA:1,2018-03-05T19:30:00Z,30.3085,-88.1395,0.0,19.14,2 
DISL,ioos:station:DISL:CATA:1,2018-03-05T20:30:00Z,30.3085,-88.1395,0.0,19.39,2 
DISL,ioos:station:DISL:CATA:1,2018-03-05T21:30:00Z,30.3085,-88.1395,0.0,19.41,2 
DISL,ioos:station:DISL:CATA:1,2018-03-05T22:30:00Z,30.3085,-88.1395,0.0,19.42,2 
DISL,ioos:station:DISL:CATA:1,2018-03-05T23:30:00Z,30.3085,-88.1395,0.0,19.08,2 
DISL,ioos:station:DISL:CATA:1,2018-03-06T00:30:00Z,30.3085,-88.1395,0.0,19.02,2 
DISL,ioos:station:DISL:CATA:1,2018-03-06T01:30:00Z,30.3085,-88.1395,0.0,18.95,2 
DISL,ioos:station:DISL:CATA:1,2018-03-06T02:30:00Z,30.3085,-88.1395,0.0,18.98,2 
DISL,ioos:station:DISL:CATA:1,2018-03-06T03:30:00Z,30.3085,-88.1395,0.0,18.96,2 
DISL,ioos:station:DISL:CATA:1,2018-03-06T04:30:00Z,30.3085,-88.1395,0.0,19.0,2 
DISL,ioos:station:DISL:CATA:1,2018-03-06T05:30:00Z,30.3085,-88.1395,0.0,19.04,2 
DISL,ioos:station:DISL:CATA:1,2018-03-06T06:30:00Z,30.3085,-88.1395,0.0,18.98,2 
DISL,ioos:station:DISL:CATA:1,2018-03-06T07:30:00Z,30.3085,-88.1395,0.0,18.92,2 
DISL,ioos:station:DISL:CATA:1,2018-03-06T08:30:00Z,30.3085,-88.1395,0.0,18.9,2 
DISL,ioos:station:DISL:CATA:1,2018-03-06T09:30:00Z,30.3085,-88.1395,0.0,18.9,2 
DISL,ioos:station:DISL:CATA:1,2018-03-06T10:30:00Z,30.3085,-88.1395,0.0,18.91,2 
DISL,ioos:station:DISL:CATA:1,2018-03-06T11:30:00Z,30.3085,-88.1395,0.0,18.92,2 
DISL,ioos:station:DISL:CATA:1,2018-03-06T12:30:00Z,30.3085,-88.1395,0.0,18.94,2 
DISL,ioos:station:DISL:CATA:1,2018-03-06T13:30:00Z,30.3085,-88.1395,0.0,18.92,2 
DISL,ioos:station:DISL:CATA:1,2018-03-06T14:00:00Z,30.3085,-88.1395,0.0,18.94,2 
DISL,ioos:station:DISL:CATA:1,2018-03-06T15:30:00Z,30.3085,-88.1395,0.0,18.87,2 
DISL,ioos:station:DISL:CATA:1,2018-03-06T16:30:00Z,30.3085,-88.1395,0.0,18.74,2 
DISL,ioos:station:DISL:CATA:1,2018-03-06T17:30:00Z,30.3085,-88.1395,0.0,19.18,2 
DISL,ioos:station:DISL:CATA:1,2018-03-06T18:30:00Z,30.3085,-88.1395,0.0,19.12,2 
DISL,ioos:station:DISL:CATA:1,2018-03-06T19:30:00Z,30.3085,-88.1395,0.0,19.51,2 
DISL,ioos:station:DISL:CATA:1,2018-03-06T20:30:00Z,30.3085,-88.1395,0.0,19.38,2 
DISL,ioos:station:DISL:CATA:1,2018-03-06T21:30:00Z,30.3085,-88.1395,0.0,19.17,2 
DISL,ioos:station:DISL:CATA:1,2018-03-06T22:30:00Z,30.3085,-88.1395,0.0,19.16,2 
DISL,ioos:station:DISL:CATA:1,2018-03-06T23:30:00Z,30.3085,-88.1395,0.0,19.41,2 
DISL,ioos:station:DISL:CATA:1,2018-03-07T00:30:00Z,30.3085,-88.1395,0.0,19.03,2 
DISL,ioos:station:DISL:CATA:1,2018-03-07T01:30:00Z,30.3085,-88.1395,0.0,18.99,2 
DISL,ioos:station:DISL:CATA:1,2018-03-07T02:30:00Z,30.3085,-88.1395,0.0,18.89,2 
DISL,ioos:station:DISL:CATA:1,2018-03-07T03:30:00Z,30.3085,-88.1395,0.0,18.8,2 
DISL,ioos:station:DISL:CATA:1,2018-03-07T04:30:00Z,30.3085,-88.1395,0.0,18.65,2 
DISL,ioos:station:DISL:CATA:1,2018-03-07T05:30:00Z,30.3085,-88.1395,0.0,18.73,2 
DISL,ioos:station:DISL:CATA:1,2018-03-07T06:30:00Z,30.3085,-88.1395,0.0,18.65,2 
DISL,ioos:station:DISL:CATA:1,2018-03-07T07:30:00Z,30.3085,-88.1395,0.0,18.21,2 
DISL,ioos:station:DISL:CATA:1,2018-03-07T08:30:00Z,30.3085,-88.1395,0.0,18.61,2 
DISL,ioos:station:DISL:CATA:1,2018-03-07T09:30:00Z,30.3085,-88.1395,0.0,18.49,2 
DISL,ioos:station:DISL:CATA:1,2018-03-07T10:30:00Z,30.3085,-88.1395,0.0,17.68,2 
DISL,ioos:station:DISL:CATA:1,2018-03-07T11:30:00Z,30.3085,-88.1395,0.0,17.63,2 
DISL,ioos:station:DISL:CATA:1,2018-03-07T12:30:00Z,30.3085,-88.1395,0.0,17.71,2 
DISL,ioos:station:DISL:CATA:1,2018-03-07T13:30:00Z,30.3085,-88.1395,0.0,17.58,2 
DISL,ioos:station:DISL:CATA:1,2018-03-07T14:30:00Z,30.3085,-88.1395,0.0,17.51,2 
DISL,ioos:station:DISL:CATA:1,2018-03-07T15:30:00Z,30.3085,-88.1395,0.0,17.42,2 
DISL,ioos:station:DISL:CATA:1,2018-03-07T16:30:00Z,30.3085,-88.1395,0.0,17.42,2 
DISL,ioos:station:DISL:CATA:1,2018-03-07T17:30:00Z,30.3085,-88.1395,0.0,16.85,2 
DISL,ioos:station:DISL:CATA:1,2018-03-07T18:30:00Z,30.3085,-88.1395,0.0,17.33,2 
DISL,ioos:station:DISL:CATA:1,2018-03-07T19:30:00Z,30.3085,-88.1395,0.0,17.79,2 
DISL,ioos:station:DISL:CATA:1,2018-03-07T20:30:00Z,30.3085,-88.1395,0.0,18.0,2 
DISL,ioos:station:DISL:CATA:1,2018-03-07T21:30:00Z,30.3085,-88.1395,0.0,18.07,2 
DISL,ioos:station:DISL:CATA:1,2018-03-07T22:30:00Z,30.3085,-88.1395,0.0,18.02,2 
DISL,ioos:station:DISL:CATA:1,2018-03-07T23:30:00Z,30.3085,-88.1395,0.0,17.9,2 
DISL,ioos:station:DISL:CATA:1,2018-03-08T00:30:00Z,30.3085,-88.1395,0.0,18.06,2 
DISL,ioos:station:DISL:CATA:1,2018-03-08T01:30:00Z,30.3085,-88.1395,0.0,17.46,2 
DISL,ioos:station:DISL:CATA:1,2018-03-08T02:30:00Z,30.3085,-88.1395,0.0,17.41,2 
DISL,ioos:station:DISL:CATA:1,2018-03-08T03:30:00Z,30.3085,-88.1395,0.0,17.4,2 
DISL,ioos:station:DISL:CATA:1,2018-03-08T04:30:00Z,30.3085,-88.1395,0.0,17.44,2 
DISL,ioos:station:DISL:CATA:1,2018-03-08T05:30:00Z,30.3085,-88.1395,0.0,17.19,2 
DISL,ioos:station:DISL:CATA:1,2018-03-08T06:30:00Z,30.3085,-88.1395,0.0,17.07,2 
DISL,ioos:station:DISL:CATA:1,2018-03-08T07:30:00Z,30.3085,-88.1395,0.0,16.88,2 
DISL,ioos:station:DISL:CATA:1,2018-03-08T08:30:00Z,30.3085,-88.1395,0.0,16.7,2 
DISL,ioos:station:DISL:CATA:1,2018-03-08T09:30:00Z,30.3085,-88.1395,0.0,16.69,2 
DISL,ioos:station:DISL:CATA:1,2018-03-08T10:30:00Z,30.3085,-88.1395,0.0,16.67,2 
DISL,ioos:station:DISL:CATA:1,2018-03-08T17:30:00Z,30.3085,-88.1395,0.0,16.45,2 
DISL,ioos:station:DISL:CATA:1,2018-03-08T18:30:00Z,30.3085,-88.1395,0.0,16.9,2 
DISL,ioos:station:DISL:CATA:1,2018-03-08T19:00:00Z,30.3085,-88.1395,0.0,16.98,2 
DISL,ioos:station:DISL:CATA:1,2018-03-08T20:30:00Z,30.3085,-88.1395,0.0,16.68,2 
DISL,ioos:station:DISL:CATA:1,2018-03-08T21:30:00Z,30.3085,-88.1395,0.0,16.91,2 
DISL,ioos:station:DISL:CATA:1,2018-03-08T22:30:00Z,30.3085,-88.1395,0.0,16.98,2 
DISL,ioos:station:DISL:CATA:1,2018-03-08T23:30:00Z,30.3085,-88.1395,0.0,16.91,2 
DISL,ioos:station:DISL:CATA:1,2018-03-09T00:30:00Z,30.3085,-88.1395,0.0,17.04,2 
DISL,ioos:station:DISL:CATA:1,2018-03-09T01:30:00Z,30.3085,-88.1395,0.0,16.99,2 
DISL,ioos:station:DISL:CATA:1,2018-03-09T02:30:00Z,30.3085,-88.1395,0.0,16.4,2 
DISL,ioos:station:DISL:CATA:1,2018-03-09T03:30:00Z,30.3085,-88.1395,0.0,16.41,2 
DISL,ioos:station:DISL:CATA:1,2018-03-09T04:30:00Z,30.3085,-88.1395,0.0,16.41,2 
DISL,ioos:station:DISL:CATA:1,2018-03-09T05:30:00Z,30.3085,-88.1395,0.0,16.25,2 
DISL,ioos:station:DISL:CATA:1,2018-03-09T06:30:00Z,30.3085,-88.1395,0.0,16.25,2 
DISL,ioos:station:DISL:CATA:1,2018-03-09T07:30:00Z,30.3085,-88.1395,0.0,16.37,2 
DISL,ioos:station:DISL:CATA:1,2018-03-09T08:30:00Z,30.3085,-88.1395,0.0,16.32,2 
DISL,ioos:station:DISL:CATA:1,2018-03-09T09:30:00Z,30.3085,-88.1395,0.0,16.31,2 
DISL,ioos:station:DISL:CATA:1,2018-03-09T10:30:00Z,30.3085,-88.1395,0.0,16.03,2 
DISL,ioos:station:DISL:CATA:1,2018-03-09T11:30:00Z,30.3085,-88.1395,0.0,15.81,2 
DISL,ioos:station:DISL:CATA:1,2018-03-09T12:30:00Z,30.3085,-88.1395,0.0,15.73,2 
DISL,ioos:station:DISL:CATA:1,2018-03-09T13:30:00Z,30.3085,-88.1395,0.0,15.62,2 
DISL,ioos:station:DISL:CATA:1,2018-03-09T14:30:00Z,30.3085,-88.1395,0.0,15.64,2 
DISL,ioos:station:DISL:CATA:1,2018-03-09T15:30:00Z,30.3085,-88.1395,0.0,15.71,2 
DISL,ioos:station:DISL:CATA:1,2018-03-09T16:30:00Z,30.3085,-88.1395,0.0,15.87,2 
DISL,ioos:station:DISL:CATA:1,2018-03-09T17:30:00Z,30.3085,-88.1395,0.0,16.12,2 
DISL,ioos:station:DISL:CATA:1,2018-03-09T18:30:00Z,30.3085,-88.1395,0.0,16.61,2 
DISL,ioos:station:DISL:CATA:1,2018-03-09T19:30:00Z,30.3085,-88.1395,0.0,17.13,2 
DISL,ioos:station:DISL:CATA:1,2018-03-09T20:30:00Z,30.3085,-88.1395,0.0,17.23,2 
DISL,ioos:station:DISL:CATA:1,2018-03-09T21:30:00Z,30.3085,-88.1395,0.0,17.34,2 
DISL,ioos:station:DISL:CATA:1,2018-03-09T22:30:00Z,30.3085,-88.1395,0.0,17.2,2 
DISL,ioos:station:DISL:CATA:1,2018-03-09T23:30:00Z,30.3085,-88.1395,0.0,17.13,2 
DISL,ioos:station:DISL:CATA:1,2018-03-10T00:30:00Z,30.3085,-88.1395,0.0,16.97,2 
DISL,ioos:station:DISL:CATA:1,2018-03-10T01:30:00Z,30.3085,-88.1395,0.0,17.13,2 
DISL,ioos:station:DISL:CATA:1,2018-03-10T02:30:00Z,30.3085,-88.1395,0.0,16.6,2 
DISL,ioos:station:DISL:CATA:1,2018-03-10T03:30:00Z,30.3085,-88.1395,0.0,17.14,2 
DISL,ioos:station:DISL:CATA:1,2018-03-10T04:30:00Z,30.3085,-88.1395,0.0,17.09,2 
DISL,ioos:station:DISL:CATA:1,2018-03-10T05:30:00Z,30.3085,-88.1395,0.0,16.62,2 
DISL,ioos:station:DISL:CATA:1,2018-03-10T06:30:00Z,30.3085,-88.1395,0.0,16.47,2 
DISL,ioos:station:DISL:CATA:1,2018-03-10T07:30:00Z,30.3085,-88.1395,0.0,16.36,2 
DISL,ioos:station:DISL:CATA:1,2018-03-10T08:30:00Z,30.3085,-88.1395,0.0,16.28,2 
DISL,ioos:station:DISL:CATA:1,2018-03-10T09:30:00Z,30.3085,-88.1395,0.0,16.23,2 
DISL,ioos:station:DISL:CATA:1,2018-03-10T10:30:00Z,30.3085,-88.1395,0.0,16.28,2 
DISL,ioos:station:DISL:CATA:1,2018-03-10T11:30:00Z,30.3085,-88.1395,0.0,16.37,2 
DISL,ioos:station:DISL:CATA:1,2018-03-10T12:30:00Z,30.3085,-88.1395,0.0,16.32,2 
DISL,ioos:station:DISL:CATA:1,2018-03-10T13:30:00Z,30.3085,-88.1395,0.0,16.34,2 
DISL,ioos:station:DISL:CATA:1,2018-03-10T14:30:00Z,30.3085,-88.1395,0.0,16.43,2 
DISL,ioos:station:DISL:CATA:1,2018-03-10T15:30:00Z,30.3085,-88.1395,0.0,16.43,2 
DISL,ioos:station:DISL:CATA:1,2018-03-10T16:30:00Z,30.3085,-88.1395,0.0,16.46,2 
DISL,ioos:station:DISL:CATA:1,2018-03-10T17:30:00Z,30.3085,-88.1395,0.0,16.64,2 
DISL,ioos:station:DISL:CATA:1,2018-03-10T18:30:00Z,30.3085,-88.1395,0.0,16.86,2 
DISL,ioos:station:DISL:CATA:1,2018-03-10T19:30:00Z,30.3085,-88.1395,0.0,17.03,2 
DISL,ioos:station:DISL:CATA:1,2018-03-10T20:30:00Z,30.3085,-88.1395,0.0,17.23,2 
DISL,ioos:station:DISL:CATA:1,2018-03-10T21:30:00Z,30.3085,-88.1395,0.0,17.32,2 
DISL,ioos:station:DISL:CATA:1,2018-03-10T22:30:00Z,30.3085,-88.1395,0.0,17.43,2 
DISL,ioos:station:DISL:CATA:1,2018-03-10T23:30:00Z,30.3085,-88.1395,0.0,17.43,2 
DISL,ioos:station:DISL:CATA:1,2018-03-11T00:30:00Z,30.3085,-88.1395,0.0,17.46,2 
DISL,ioos:station:DISL:CATA:1,2018-03-11T01:30:00Z,30.3085,-88.1395,0.0,17.49,2 
DISL,ioos:station:DISL:CATA:1,2018-03-11T02:30:00Z,30.3085,-88.1395,0.0,17.49,2 
DISL,ioos:station:DISL:CATA:1,2018-03-11T03:30:00Z,30.3085,-88.1395,0.0,17.42,2 
DISL,ioos:station:DISL:CATA:1,2018-03-11T04:30:00Z,30.3085,-88.1395,0.0,18.13,2 
DISL,ioos:station:DISL:CATA:1,2018-03-11T05:30:00Z,30.3085,-88.1395,0.0,17.51,2 
DISL,ioos:station:DISL:CATA:1,2018-03-11T06:30:00Z,30.3085,-88.1395,0.0,17.2,2 
DISL,ioos:station:DISL:CATA:1,2018-03-11T07:30:00Z,30.3085,-88.1395,0.0,17.05,2 
DISL,ioos:station:DISL:CATA:1,2018-03-11T08:30:00Z,30.3085,-88.1395,0.0,17.04,2 
DISL,ioos:station:DISL:CATA:1,2018-03-11T09:30:00Z,30.3085,-88.1395,0.0,16.89,2 
DISL,ioos:station:DISL:CATA:1,2018-03-11T10:30:00Z,30.3085,-88.1395,0.0,16.8,2 
DISL,ioos:station:DISL:CATA:1,2018-03-11T11:30:00Z,30.3085,-88.1395,0.0,16.83,2 
DISL,ioos:station:DISL:CATA:1,2018-03-11T12:30:00Z,30.3085,-88.1395,0.0,16.91,2 
DISL,ioos:station:DISL:CATA:1,2018-03-11T13:30:00Z,30.3085,-88.1395,0.0,16.92,2 
DISL,ioos:station:DISL:CATA:1,2018-03-11T14:30:00Z,30.3085,-88.1395,0.0,17.08,2 
DISL,ioos:station:DISL:CATA:1,2018-03-11T15:30:00Z,30.3085,-88.1395,0.0,17.14,2 
DISL,ioos:station:DISL:CATA:1,2018-03-11T16:30:00Z,30.3085,-88.1395,0.0,17.25,2 
DISL,ioos:station:DISL:CATA:1,2018-03-11T17:30:00Z,30.3085,-88.1395,0.0,17.32,2 
DISL,ioos:station:DISL:CATA:1,2018-03-11T18:30:00Z,30.3085,-88.1395,0.0,17.3,2 
DISL,ioos:station:DISL:CATA:1,2018-03-11T19:30:00Z,30.3085,-88.1395,0.0,17.27,2 
DISL,ioos:station:DISL:CATA:1,2018-03-11T20:30:00Z,30.3085,-88.1395,0.0,17.24,2 
DISL,ioos:station:DISL:CATA:1,2018-03-11T21:30:00Z,30.3085,-88.1395,0.0,17.19,2 
DISL,ioos:station:DISL:CATA:1,2018-03-11T22:30:00Z,30.3085,-88.1395,0.0,17.36,2 
DISL,ioos:station:DISL:CATA:1,2018-03-11T23:30:00Z,30.3085,-88.1395,0.0,17.49,2 
DISL,ioos:station:DISL:CATA:1,2018-03-12T00:30:00Z,30.3085,-88.1395,0.0,17.34,2 
DISL,ioos:station:DISL:CATA:1,2018-03-12T01:30:00Z,30.3085,-88.1395,0.0,17.21,2 
DISL,ioos:station:DISL:CATA:1,2018-03-12T02:30:00Z,30.3085,-88.1395,0.0,17.38,2 
DISL,ioos:station:DISL:CATA:1,2018-03-12T03:30:00Z,30.3085,-88.1395,0.0,17.54,2 
DISL,ioos:station:DISL:CATA:1,2018-03-12T04:30:00Z,30.3085,-88.1395,0.0,17.59,2 
DISL,ioos:station:DISL:CATA:1,2018-03-12T05:30:00Z,30.3085,-88.1395,0.0,17.37,2 
DISL,ioos:station:DISL:CATA:1,2018-03-12T06:30:00Z,30.3085,-88.1395,0.0,17.19,2 
DISL,ioos:station:DISL:CATA:1,2018-03-12T07:30:00Z,30.3085,-88.1395,0.0,17.15,2 
DISL,ioos:station:DISL:CATA:1,2018-03-12T08:30:00Z,30.3085,-88.1395,0.0,17.0,2 
DISL,ioos:station:DISL:CATA:1,2018-03-12T09:30:00Z,30.3085,-88.1395,0.0,16.78,2 
DISL,ioos:station:DISL:CATA:1,2018-03-12T10:30:00Z,30.3085,-88.1395,0.0,16.88,2 
DISL,ioos:station:DISL:CATA:1,2018-03-12T11:30:00Z,30.3085,-88.1395,0.0,16.62,2 
DISL,ioos:station:DISL:CATA:1,2018-03-12T12:30:00Z,30.3085,-88.1395,0.0,16.34,2 
DISL,ioos:station:DISL:CATA:1,2018-03-12T13:30:00Z,30.3085,-88.1395,0.0,16.18,2 
DISL,ioos:station:DISL:CATA:1,2018-03-12T14:30:00Z,30.3085,-88.1395,0.0,16.09,2 
DISL,ioos:station:DISL:CATA:1,2018-03-12T15:30:00Z,30.3085,-88.1395,0.0,15.62,2 
DISL,ioos:station:DISL:CATA:1,2018-03-12T16:30:00Z,30.3085,-88.1395,0.0,16.06,2 
DISL,ioos:station:DISL:CATA:1,2018-03-12T17:30:00Z,30.3085,-88.1395,0.0,15.95,2 
DISL,ioos:station:DISL:CATA:1,2018-03-12T18:30:00Z,30.3085,-88.1395,0.0,15.9,2 
DISL,ioos:station:DISL:CATA:1,2018-03-12T19:30:00Z,30.3085,-88.1395,0.0,16.22,2 
DISL,ioos:station:DISL:CATA:1,2018-03-12T20:30:00Z,30.3085,-88.1395,0.0,16.56,2 
DISL,ioos:station:DISL:CATA:1,2018-03-12T21:30:00Z,30.3085,-88.1395,0.0,16.69,2 
DISL,ioos:station:DISL:CATA:1,2018-03-12T22:30:00Z,30.3085,-88.1395,0.0,16.7,2 
DISL,ioos:station:DISL:CATA:1,2018-03-12T23:30:00Z,30.3085,-88.1395,0.0,16.57,2 
DISL,ioos:station:DISL:CATA:1,2018-03-13T00:30:00Z,30.3085,-88.1395,0.0,16.39,2 
DISL,ioos:station:DISL:CATA:1,2018-03-13T01:30:00Z,30.3085,-88.1395,0.0,16.41,2 
DISL,ioos:station:DISL:CATA:1,2018-03-13T02:30:00Z,30.3085,-88.1395,0.0,16.46,2 
DISL,ioos:station:DISL:CATA:1,2018-03-13T03:30:00Z,30.3085,-88.1395,0.0,16.42,2 
DISL,ioos:station:DISL:CATA:1,2018-03-13T04:30:00Z,30.3085,-88.1395,0.0,16.39,2 
DISL,ioos:station:DISL:CATA:1,2018-03-13T05:30:00Z,30.3085,-88.1395,0.0,16.4,2 
DISL,ioos:station:DISL:CATA:1,2018-03-13T06:30:00Z,30.3085,-88.1395,0.0,16.14,2 
DISL,ioos:station:DISL:CATA:1,2018-03-13T07:30:00Z,30.3085,-88.1395,0.0,15.85,2 
DISL,ioos:station:DISL:CATA:1,2018-03-13T08:30:00Z,30.3085,-88.1395,0.0,15.78,2 
DISL,ioos:station:DISL:CATA:1,2018-03-13T09:30:00Z,30.3085,-88.1395,0.0,15.34,2 
DISL,ioos:station:DISL:CATA:1,2018-03-13T10:30:00Z,30.3085,-88.1395,0.0,15.62,2 
DISL,ioos:station:DISL:CATA:1,2018-03-13T11:30:00Z,30.3085,-88.1395,0.0,15.47,2 
DISL,ioos:station:DISL:CATA:1,2018-03-13T12:30:00Z,30.3085,-88.1395,0.0,15.23,2 